Retour au catalogue

ORBCOMM FM 12

ActifCommunicationsLEO
NORAD 25115·PAYLOAD·🇺🇸 United States

Lancé Dec 23, 1997 depuis Cape Canaveral Space Force Station

Loading…

Prochains Passages (prochaines 24 heures)

TLE

FraisSource: Space-Track

Époque: Sep 14, 2026, 05:58 UTC

1 25115U 97084D   26257.24881055  .00000718  00000-0  23578-3 0  9991
2 25115  45.0158 349.4895 0002881 330.4251  29.6438 14.46898260507000

Suivez ORBCOMM FM 12 en temps réel avec AllMySat

Download on the App Store